W7PLC Weather Reports


time (UTC)temp
C
wind
direction
speed
KPH
gust
KPH
rain 1hr
cm
rain 24hr
cm
rain mn
cm
humidity
%
barometer
mb
20260504001707 31 45 0.0 1.6 0.00 0.00 0.00 35 1007.6
20260504001203 32 21 0.0 1.6 0.00 0.00 0.00 33 1007.8
20260504000700 32 25 3.2 4.8 0.00 0.00 0.00 34 1007.6
20260504000157 31 5 0.0 1.6 0.00 0.00 0.00 33 1007.7
20260503235655 31 67 1.6 1.6 0.00 0.00 0.00 34 1007.9
20260503235151 31 35 0.0 0.0 0.00 0.00 0.00 34 1007.8
20260503234649 31 60 0.0 0.0 0.00 0.00 0.00 34 1007.8
20260503234148 31 35 0.0 0.0 0.00 0.00 0.00 34 1008.0
20260503233644 31 67 0.0 1.6 0.00 0.00 0.00 34 1007.9
20260503233139 31 40 0.0 0.0 0.00 0.00 0.00 36 1007.9
20260503232637 31 37 0.0 0.0 0.00 0.00 0.00 36 1008.0
20260503232134 31 25 1.6 1.6 0.00 0.00 0.00 33 1008.2
20260503231632 32 48 0.0 1.6 0.00 0.00 0.00 33 1008.2
20260503231128 31 333 1.6 1.6 0.00 0.00 0.00 36 1008.2
20260503230625 32 59 1.6 3.2 0.00 0.00 0.00 36 1008.2
20260503230122 31 353 0.0 1.6 0.00 0.00 0.00 35 1008.4
20260503225620 31 34 0.0 0.0 0.00 0.00 0.00 35 1008.6
20260503225119 31 4 0.0 1.6 0.00 0.00 0.00 35 1008.6
20260503224617 32 24 0.0 1.6 0.00 0.00 0.00 34 1008.5
20260503224115 31 329 1.6 3.2 0.00 0.00 0.00 34 1008.6
20260503223613 30 21 0.0 0.0 0.00 0.00 0.00 37 1008.7
20260503223108 30 48 1.6 3.2 0.00 0.00 0.00 37 1008.6
20260503222606 30 316 0.0 0.0 0.00 0.00 0.00 39 1008.6
20260503222104 29 322 0.0 0.0 0.00 0.00 0.00 38 1008.9
20260503221602 30 319 3.2 3.2 0.00 0.00 0.00 36 1008.8
20260503221059 30 23 0.0 0.0 0.00 0.00 0.00 37 1009.0
20260503220555 28 49 0.0 0.0 0.00 0.00 0.00 38 1008.9
20260503220052 28 307 3.2 3.2 0.00 0.00 0.00 38 1009.0
20260503215549 29 285 1.6 3.2 0.00 0.00 0.00 39 1009.4
20260503215046 30 329 1.6 1.6 0.00 0.00 0.00 39 1009.3
20260503214544 29 350 0.0 0.0 0.00 0.00 0.00 40 1009.3
20260503214040 28 347 1.6 3.2 0.00 0.00 0.00 41 1009.5
20260503213539 30 343 0.0 1.6 0.00 0.00 0.00 39 1009.4
20260503213035 30 65 1.6 1.6 0.00 0.00 0.00 38 1009.7
20260503212533 30 335 0.0 0.0 0.00 0.00 0.00 39 1009.5
20260503212030 29 326 3.2 3.2 0.00 0.00 0.00 39 1009.6
20260503211527 30 74 4.8 4.8 0.00 0.00 0.00 38 1009.8
20260503211022 28 67 3.2 3.2 0.00 0.00 0.00 40 1009.7
20260503210520 28 13 0.0 0.0 0.00 0.00 0.00 41 1009.7
20260503210015 29 68 3.2 3.2 0.00 0.00 0.00 40 1009.7
20260503205512 29 41 0.0 0.0 0.00 0.00 0.00 40 1010.0
20260503205009 28 30 0.0 0.0 0.00 0.00 0.00 40 1010.0
20260503204506 28 2 0.0 0.0 0.00 0.00 0.00 40 1010.0
20260503204002 28 28 0.0 1.6 0.00 0.00 0.00 42 1010.1
20260503203500 27 57 1.6 3.2 0.00 0.00 0.00 41 1010.2
20260503202956 27 346 0.0 0.0 0.00 0.00 0.00 41 1010.2
20260503202455 27 53 1.6 1.6 0.00 0.00 0.00 43 1010.1
20260503201953 27 319 0.0 1.6 0.00 0.00 0.00 43 1010.5
20260503201450 28 40 0.0 0.0 0.00 0.00 0.00 43 1010.5
20260503200947 28 83 0.0 1.6 0.00 0.00 0.00 41 1010.5
20260503200444 27 83 1.6 3.2 0.00 0.00 0.00 42 1010.5
20260503195940 28 14 0.0 0.0 0.00 0.00 0.00 42 1010.9
20260503195438 27 32 0.0 0.0 0.00 0.00 0.00 43 1010.7
20260503194934 27 73 1.6 3.2 0.00 0.00 0.00 43 1010.9
20260503194431 26 345 0.0 0.0 0.00 0.00 0.00 45 1011.0
20260503193926 27 47 0.0 1.6 0.00 0.00 0.00 43 1010.9
20260503193422 26 347 1.6 1.6 0.00 0.00 0.00 46 1010.9
20260503192918 26 42 0.0 1.6 0.00 0.00 0.00 44 1011.1
20260503192414 27 60 0.0 0.0 0.00 0.00 0.00 45 1011.1
20260503191910 26 30 0.0 0.0 0.00 0.00 0.00 46 1011.0
20260503191408 26 64 1.6 1.6 0.00 0.00 0.00 45 1011.1
20260503190904 26 77 3.2 3.2 0.00 0.00 0.00 47 1011.5
20260503190401 25 56 1.6 3.2 0.00 0.00 0.00 47 1011.2
20260503185858 26 28 0.0 0.0 0.00 0.00 0.00 47 1011.4
20260503185354 26 59 1.6 1.6 0.00 0.00 0.00 47 1011.4
20260503184854 25 8 0.0 0.0 0.00 0.00 0.00 47 1011.5
20260503184350 25 334 3.2 3.2 0.00 0.00 0.00 46 1011.4
20260503183846 25 5 0.0 1.6 0.00 0.00 0.00 47 1011.7
20260503183344 25 8 0.0 0.0 0.00 0.00 0.00 48 1011.7
20260503182841 25 352 1.6 1.6 0.00 0.00 0.00 49 1011.9
20260503182340 25 27 0.0 1.6 0.00 0.00 0.00 48 1011.7
20260503181837 25 52 0.0 1.6 0.00 0.00 0.00 50 1011.8
20260503181334 23 28 0.0 0.0 0.00 0.00 0.00 50 1011.8
20260503180830 24 27 1.6 3.2 0.00 0.00 0.00 50 1011.7
20260503180328 24 56 1.6 1.6 0.00 0.00 0.00 50 1011.8
20260503175824 23 40 1.6 1.6 0.00 0.00 0.00 50 1011.8
20260503175322 23 336 0.0 1.6 0.00 0.00 0.00 51 1011.9
20260503174817 23 73 4.8 4.8 0.00 0.00 0.00 52 1011.8
20260503174316 23 62 1.6 1.6 0.00 0.00 0.00 53 1011.8
20260503173811 23 19 0.0 0.0 0.00 0.00 0.00 53 1012.0
20260503173308 23 57 1.6 1.6 0.00 0.00 0.00 53 1011.9
20260503172804 23 57 0.0 1.6 0.00 0.00 0.00 53 1012.2
20260503172305 23 27 0.0 0.0 0.00 0.00 0.00 53 1012.3
20260503171758 22 354 0.0 0.0 0.00 0.00 0.00 53 1012.3
20260503171255 23 40 1.6 1.6 0.00 0.00 0.00 54 1012.4
20260503170752 22 337 1.6 1.6 0.00 0.00 0.00 51 1012.4
20260503170249 23 22 0.0 1.6 0.00 0.00 0.00 52 1012.3
20260503160211 20 29 0.0 1.6 0.00 0.00 0.00 60 1012.3
20260503150641 16 43 0.0 0.0 0.00 0.00 0.00 70 1012.5
20260503150137 16 44 0.0 0.0 0.00 0.00 0.00 75 1012.4
20260503131031 10 8 0.0 0.0 0.00 0.00 0.00 96 1012.0
20260503130528 10 8 0.0 0.0 0.00 0.00 0.00 96 1012.0
20260503110419 10 8 0.0 0.0 0.00 0.00 0.00 92 1012.3
20260503090310 12 8 0.0 0.0 0.00 0.00 0.00 88 1012.5
20260503081243 12 8 0.0 0.0 0.00 0.00 0.00 85 1012.5
20260503080738 12 8 0.0 0.0 0.00 0.00 0.00 85 1012.5
20260503080236 12 8 0.0 0.0 0.00 0.00 0.00 85 1012.4
20260503072712 13 2 0.0 0.0 0.00 0.00 0.00 83 1012.7
20260503072209 13 60 0.0 0.0 0.00 0.00 0.00 83 1012.7
20260503071706 13 60 0.0 0.0 0.00 0.00 0.00 82 1012.4
20260503071203 13 61 0.0 0.0 0.00 0.00 0.00 82 1012.5
20260503070659 13 61 0.0 0.0 0.00 0.00 0.00 82 1012.4
20260503070158 13 61 0.0 0.0 0.00 0.00 0.00 82 1012.4
20260503060122 15 61 0.0 0.0 0.00 0.00 0.00 77 1012.4
20260503055114 15 61 0.0 0.0 0.00 0.00 0.00 77 1012.4
20260503054609 15 61 0.0 0.0 0.00 0.00 0.00 77 1012.5
20260503054106 15 61 0.0 0.0 0.00 0.00 0.00 76 1012.5
20260503053604 15 61 0.0 0.0 0.00 0.00 0.00 77 1012.3
20260503053102 15 61 0.0 0.0 0.00 0.00 0.00 77 1012.4
20260503052558 15 61 0.0 0.0 0.00 0.00 0.00 76 1012.5
20260503052055 15 61 0.0 0.0 0.00 0.00 0.00 75 1012.3
20260503051550 15 61 0.0 0.0 0.00 0.00 0.00 75 1012.3
20260503051048 15 61 0.0 0.0 0.00 0.00 0.00 74 1012.4
20260503050544 16 61 0.0 0.0 0.00 0.00 0.00 74 1012.4
20260503050042 16 61 0.0 0.0 0.00 0.00 0.00 74 1012.4
20260503045538 16 61 0.0 0.0 0.00 0.00 0.00 73 1012.4
20260503045036 16 61 0.0 0.0 0.00 0.00 0.00 73 1012.3
20260503044532 16 61 0.0 0.0 0.00 0.00 0.00 74 1012.1
20260503044030 16 61 0.0 0.0 0.00 0.00 0.00 72 1012.1
20260503043526 16 61 0.0 0.0 0.00 0.00 0.00 72 1011.9
20260503043023 16 61 0.0 0.0 0.00 0.00 0.00 71 1012.1
20260503042520 16 61 0.0 0.0 0.00 0.00 0.00 71 1012.0
20260503042016 17 61 0.0 0.0 0.00 0.00 0.00 70 1011.9
20260503041513 17 61 0.0 0.0 0.00 0.00 0.00 69 1012.0
20260503041011 17 62 0.0 0.0 0.00 0.00 0.00 69 1011.8
20260503040508 17 62 0.0 0.0 0.00 0.00 0.00 69 1011.8
20260503040005 17 62 0.0 0.0 0.00 0.00 0.00 69 1011.7
20260503035501 18 62 0.0 0.0 0.00 0.00 0.00 68 1011.5
20260503034959 18 63 0.0 0.0 0.00 0.00 0.00 67 1011.6
20260503034456 18 63 0.0 0.0 0.00 0.00 0.00 65 1011.4
20260503033953 18 63 0.0 0.0 0.00 0.00 0.00 66 1011.2
20260503033450 18 63 0.0 0.0 0.00 0.00 0.00 65 1011.2
20260503032949 19 63 0.0 0.0 0.00 0.00 0.00 64 1011.2
20260503032447 19 63 0.0 0.0 0.00 0.00 0.00 63 1011.2
20260503031944 19 36 0.0 0.0 0.00 0.00 0.00 64 1011.1
20260503031442 20 36 0.0 0.0 0.00 0.00 0.00 62 1011.1
20260503030938 20 36 0.0 0.0 0.00 0.00 0.00 60 1011.0
20260503030434 20 35 0.0 0.0 0.00 0.00 0.00 59 1011.1
20260503025931 21 51 0.0 0.0 0.00 0.00 0.00 59 1010.8
20260503025429 21 51 0.0 0.0 0.00 0.00 0.00 55 1011.0
20260503024926 21 51 0.0 0.0 0.00 0.00 0.00 53 1011.0
20260503024422 21 51 0.0 0.0 0.00 0.00 0.00 53 1010.8
20260503023920 22 7 0.0 0.0 0.00 0.00 0.00 52 1010.9
20260503023417 22 36 0.0 0.0 0.00 0.00 0.00 52 1010.7
20260503022913 22 26 0.0 0.0 0.00 0.00 0.00 51 1010.8
20260503022408 22 29 0.0 0.0 0.00 0.00 0.00 50 1010.7
20260503021904 22 39 0.0 0.0 0.00 0.00 0.00 50 1010.6
20260503021401 22 9 0.0 0.0 0.00 0.00 0.00 51 1010.6
20260503020858 22 7 0.0 0.0 0.00 0.00 0.00 50 1010.5
20260503020356 22 359 1.6 1.6 0.00 0.00 0.00 50 1010.6
20260503015852 23 4 0.0 0.0 0.00 0.00 0.00 50 1010.5
20260503015349 23 20 1.6 1.6 0.00 0.00 0.00 50 1010.7
20260503014844 23 350 0.0 1.6 0.00 0.00 0.00 49 1010.7
20260503014343 23 4 0.0 0.0 0.00 0.00 0.00 50 1010.5
20260503013840 23 46 0.0 0.0 0.00 0.00 0.00 50 1010.6
20260503013337 23 308 3.2 3.2 0.00 0.00 0.00 49 1010.5
20260503012834 23 52 0.0 0.0 0.00 0.00 0.00 50 1010.7
20260503012332 24 347 1.6 1.6 0.00 0.00 0.00 49 1010.7
20260503011828 24 12 0.0 0.0 0.00 0.00 0.00 49 1010.5
20260503011325 24 24 0.0 0.0 0.00 0.00 0.00 49 1010.5
20260503010821 25 27 0.0 0.0 0.00 0.00 0.00 50 1010.7
20260503010319 25 8 1.6 1.6 0.00 0.00 0.00 48 1010.6
20260503005815 25 35 1.6 1.6 0.00 0.00 0.00 46 1010.4
20260503005313 25 356 0.0 0.0 0.00 0.00 0.00 49 1010.6
20260503004809 25 15 0.0 0.0 0.00 0.00 0.00 47 1010.8
20260503004307 24 317 0.0 1.6 0.00 0.00 0.00 49 1010.8
20260503003804 25 265 0.0 1.6 0.00 0.00 0.00 48 1010.6
20260503003301 26 179 1.6 3.2 0.00 0.00 0.00 47 1010.9
20260503002758 26 45 0.0 1.6 0.00 0.00 0.00 48 1010.7
20260503002255 25 53 1.6 1.6 0.00 0.00 0.00 47 1010.7